Lexington Weather

Lexington, Massachusetts, USA

72°F
8/7/2020 10:58am 
  • Lexington Conditions: Mostly cloudy
  • Temperature: 71.6°F / 22.0°CWarmer 2.2°F than last hour.
  • Dew Point: 63.3°FIncreased 1.4°Fsince last hour.
  • Relative Humidity: 75%Decreased 2.0% since last hour.
  • Wind: Wind from WSW WSW 1 mph, 10-min avg: Calm, gust: 2 mph
  • Barometer: 30.14 inFalling 0.02  inHg/hr Falling Slowly
  • Visibility: 10 miles
  • Rain Today: 0.00 in
  •   

Regional Weather Roundup
for Boston / Norton, MA

        
000
ASUS41 KBOX 031004
RWRBOX

REGIONAL WEATHER ROUNDUP
NATIONAL WEATHER SERVICE BOSTON/NORTON MA
600 AM EDT MON AUG 03 2020

NOTE:  "FAIR" INDICATES FEW OR NO CLOUDS BELOW 12,000 FEET WITH NO 
SIGNIFICANT WEATHER AND/OR OBSTRUCTIONS TO VISIBILITY.

MAZALL-031100-
EASTERN MASSACHUSETTS
  
CITY           SKY/WX    TMP DP  RH WIND       PRES   REMARKS
BOSTON         PTCLDY    78  74  87 SW14      29.89R                  
BEVERLY        CLEAR     78  75  90 SW9       29.88R                  
LAWRENCE       PTCLDY    77  75  93 S8        29.89S                  
BEDFORD        CLEAR     77  74  90 SW13      29.88R                  
BLUE HILL      NOT AVBL                                               
NORWOOD        CLEAR     79  73  82 S3        29.90R                  
MARSHFIELD     CLEAR     79  77  94 SW7       29.91R                  
PLYMOUTH       CLEAR     77  75  93 SW12      29.93R                  
TAUNTON        PTCLDY    79  75  87 SW7       29.92R                  
NEW BEDFORD    MOCLDY   N/A N/A N/A SW10      29.93R                  
$$

MAZALL-031100-
CAPE COD AND THE ISLANDS
  
CITY           SKY/WX    TMP DP  RH WIND       PRES   REMARKS
FALMOUTH       CLOUDY    79  77  94 SW17G25   29.94R FOG              
HYANNIS        CLOUDY    80  77  90 SW14      29.93R                  
CHATHAM        CLOUDY    77  75  93 SW8       29.96R                  
PROVINCETOWN   CLEAR     76  75  97 SW13      29.93R                  
NANTUCKET      CLOUDY    74  72  93 SW16      29.97R FOG              
MARTHAS VNYRD  CLOUDY    76  74  93 SW13      29.96R FOG              
$$
 
MAZALL-031100-
CENTRAL AND WESTERN MASSACHUSETTS
  
CITY           SKY/WX    TMP DP  RH WIND       PRES   REMARKS
WORCESTER      CLEAR     74  71  91 SW12      29.94R                  
FITCHBURG      CLEAR     76  72  87 S8        29.89R                  
ORANGE         CLEAR     75  72  90 SW12      29.91R                  
SPRINGFIELD    CLEAR     74  73  96 S5        29.89R                  
WESTFIELD      CLEAR     74  72  93 S7        29.90R                  
NORTH ADAMS    CLEAR     72  64  76 W7        29.90R                  
PITTSFIELD     CLEAR     72  66  81 W5        29.93R                  
$$
 
RIZALL-031100-
RHODE ISLAND
  
CITY           SKY/WX    TMP DP  RH WIND       PRES   REMARKS
PROVIDENCE     MOCLDY    78  75  90 SW6       29.93R                  
NEWPORT        CLOUDY    76  74  93 SW5       29.94R FOG              
BLOCK ISLAND   PTCLDY    74  72  93 SW16G23   29.96R                  
SMITHFIELD     CLEAR     76  75  97 VRB5      29.94R                  
WESTERLY       PTCLDY    76  72  87 SW8       29.95R                  
$$
 
CTZALL-031100-
CONNECTICUT
  
CITY           SKY/WX    TMP DP  RH WIND       PRES   REMARKS
BRADLEY INTL   PTCLDY    76  73  91 S9        29.90R                  
HARTFORD       CLEAR     79  71  76 S8        29.91R                  
BRIDGEPORT     PTCLDY    78  71  79 SW8       29.94R                  
DANBURY        CLEAR     73  64  73 SW5       29.97R                  
GROTON         PTCLDY    75  73  93 SW7       29.93R                  
NEW HAVEN      CLEAR     79  75  87 SW7       29.94R                  
CHESTER        NOT AVBL                                               
MERIDEN        CLEAR     76  68  76 S6        29.93R                  
WILLIMANTIC    PTCLDY    76  73  91 S6        29.93R                  
OXFORD         CLEAR     73  66  78 W3        29.97R                  
$$

MEZ002-015-021-024-NHZ003-005-008-011-012-014-VTZ005-008-031100-
NORTHERN NEW ENGLAND
  
CITY           SKY/WX    TMP DP  RH WIND       PRES   REMARKS
PORTLAND ME    CLOUDY    75  71  87 S7        29.84S                  
BANGOR ME      FOG       71  69  93 S14       29.83F VSB 1/2          
CONCORD NH     PTCLDY    74  72  93 S7        29.85R                  
MANCHESTER NH  PTCLDY    77  74  90 S8        29.84S                  
NASHUA NH      CLEAR     76  76 100 VRB5      29.87R                  
PORTSMOUTH NH  MOCLDY    76  74  93 S5        29.84R                  
JAFFREY NH     CLEAR     74  70  87 S8        29.91R                  
KEENE NH       CLEAR     72  70  93 S7        29.88R                  
BURLINGTON VT  PTCLDY    75  61  61 S13       29.76R                  
MT. WASHINGTON FOG       54  52  94 W48G54      N/A  VSB 1/8          
$$

NYZ052-076-031100-
EASTERN NEW YORK
  
CITY           SKY/WX    TMP DP  RH WIND       PRES   REMARKS
ALBANY         PTCLDY    70  60  70 SW12      29.90R                  
NEW YORK CITY  MOCLDY    83  59  44 W12       29.95R                  
$$
 
ANZALL-031100-
MARINE OBSERVATIONS
  
STATION/POSITION TIME  TEMP    WIND        PRES    VSBY  WAVE
                       AIR SEA DIR/SP/G                  HT/PER
                 (UTC) (F)     (DEG/KT/KT) (MB)    (MI)  (FT/S)
BOSTON BUOY      0950   73 69  190/ 12/ 14 1011.2R         2/ 4
BUZZARDS BAY     0900          230/ 23/ 25 1014.0R
NANTUCKET SOUND  0940      76  210/ 17/ 21   N/A
MASS BAY-STELLWA NOT AVBL
ISLE OF SHOALS   0900   72     200/ 15/ 15 1010.3R
S OF BLOCK IS    0926      71                N/A           6/ 7
$$

......................KEY.........................
  SKY/WX - SKY CONDITION/PRESENT WEATHER
  TMP    - TEMPERATURE IN FAHRENHEIT
  DWPT   - DEWPOINT IN FAHRENHEIT
  RH     - RELATIVE HUMIDITY IN PERCENT
  WIND   - DIRECTION AND SPEED IN MPH
  PRES   - MEAN SEA LEVEL PRESSURE IN INCHES OF HG
  WCI    - WIND CHILL INDEX
  VSB    - VISIBILITY IN MILES
  HX     - HEAT INDEX
  TC     - TEMPERATURE IN CELSIUS
  VRB    - VARIABLE WIND DIRECTION
  N/A    - NOT AVAILABLE
  
      

Other recent Regional Weather Roundups

Fri Aug 7, 10:04am

Fri Aug 7, 9:04am

Fri Aug 7, 8:04am

Fri Aug 7, 7:04am

Fri Aug 7, 6:04am

Fri Aug 7, 5:04am

Fri Aug 7, 4:04am

Fri Aug 7, 3:04am

Fri Aug 7, 2:04am

Fri Aug 7, 1:05am

Fri Aug 7, 12:04am

Thu Aug 6, 11:04pm

Thu Aug 6, 10:04pm

Thu Aug 6, 9:04pm

Thu Aug 6, 8:04pm

Thu Aug 6, 7:04pm

Thu Aug 6, 6:04pm

Thu Aug 6, 5:04pm

Thu Aug 6, 4:05pm

Thu Aug 6, 3:04pm

Thu Aug 6, 2:05pm

Thu Aug 6, 1:04pm

Thu Aug 6, 12:04pm

Thu Aug 6, 11:04am

Thu Aug 6, 10:04am

Thu Aug 6, 9:04am

Thu Aug 6, 8:04am

Thu Aug 6, 7:04am

Thu Aug 6, 6:04am

Thu Aug 6, 5:04am

Thu Aug 6, 4:04am

Thu Aug 6, 3:04am

Thu Aug 6, 2:05am

Thu Aug 6, 1:04am

Thu Aug 6, 12:04am

Wed Aug 5, 11:04pm

Wed Aug 5, 10:04pm

Wed Aug 5, 9:04pm

Wed Aug 5, 8:05pm

Wed Aug 5, 7:04pm

Wed Aug 5, 6:04pm

Wed Aug 5, 5:04pm

Wed Aug 5, 4:05pm

Wed Aug 5, 3:04pm

Wed Aug 5, 2:04pm

Wed Aug 5, 1:04pm

Wed Aug 5, 12:04pm

Wed Aug 5, 11:04am

Wed Aug 5, 10:04am

Wed Aug 5, 9:04am

Wed Aug 5, 8:04am

Wed Aug 5, 7:04am

Wed Aug 5, 6:04am

Wed Aug 5, 5:04am

Wed Aug 5, 4:04am

Wed Aug 5, 3:04am

Wed Aug 5, 2:05am

Wed Aug 5, 1:04am

Wed Aug 5, 12:05am

Tue Aug 4, 11:05pm

Tue Aug 4, 10:05pm

Tue Aug 4, 9:04pm

Tue Aug 4, 8:04pm

Tue Aug 4, 7:05pm

Tue Aug 4, 6:05pm

Tue Aug 4, 5:05pm

Tue Aug 4, 4:05pm

Tue Aug 4, 3:04pm

Tue Aug 4, 2:05pm

Tue Aug 4, 1:04pm

Tue Aug 4, 12:05pm

Tue Aug 4, 11:04am

Tue Aug 4, 10:04am

Tue Aug 4, 9:04am

Tue Aug 4, 8:04am

Tue Aug 4, 7:04am

Tue Aug 4, 6:04am

Tue Aug 4, 5:04am

Tue Aug 4, 4:04am

Tue Aug 4, 3:04am

Tue Aug 4, 2:04am

Tue Aug 4, 1:04am

Tue Aug 4, 12:04am

Mon Aug 3, 11:04pm

Mon Aug 3, 10:04pm

Mon Aug 3, 9:04pm

Mon Aug 3, 8:05pm

Mon Aug 3, 7:04pm

Mon Aug 3, 6:04pm

Mon Aug 3, 5:04pm

Mon Aug 3, 4:05pm

Mon Aug 3, 3:04pm

Mon Aug 3, 2:04pm

Mon Aug 3, 1:04pm

Mon Aug 3, 12:05pm

Mon Aug 3, 11:04am

Mon Aug 3, 10:04am

Mon Aug 3, 9:05am

Mon Aug 3, 8:04am

Mon Aug 3, 7:04am

Mon Aug 3, 5:04am

Mon Aug 3, 4:04am

Mon Aug 3, 3:04am

Mon Aug 3, 2:04am

Mon Aug 3, 1:04am

Mon Aug 3, 12:05am

Sun Aug 2, 11:04pm

Sun Aug 2, 10:04pm

Sun Aug 2, 9:04pm

Sun Aug 2, 8:04pm

Sun Aug 2, 7:04pm

Sun Aug 2, 6:04pm

Sun Aug 2, 5:04pm

Sun Aug 2, 4:05pm

Sun Aug 2, 3:04pm

Sun Aug 2, 2:05pm

Sun Aug 2, 1:04pm

Sun Aug 2, 12:04pm

Sun Aug 2, 11:04am

Sun Aug 2, 10:04am

Sun Aug 2, 9:05am

Sun Aug 2, 8:05am

Sun Aug 2, 7:04am

Sun Aug 2, 6:04am

Sun Aug 2, 5:04am

Sun Aug 2, 4:05am

Sun Aug 2, 3:04am

Sun Aug 2, 2:04am

Sun Aug 2, 1:04am

Sun Aug 2, 12:05am

Sat Aug 1, 11:04pm

Sat Aug 1, 10:04pm

Sat Aug 1, 9:04pm

Sat Aug 1, 8:05pm

Sat Aug 1, 7:04pm

Sat Aug 1, 6:04pm

Sat Aug 1, 5:05pm

Sat Aug 1, 4:05pm

Sat Aug 1, 3:04pm

Sat Aug 1, 2:04pm

Sat Aug 1, 1:04pm

Sat Aug 1, 12:04pm

Sat Aug 1, 11:05am

Sat Aug 1, 10:05am

Sat Aug 1, 9:04am

Sat Aug 1, 8:04am

Sat Aug 1, 7:04am

Sat Aug 1, 6:04am

Sat Aug 1, 5:04am

Sat Aug 1, 4:05am

Sat Aug 1, 3:04am

Sat Aug 1, 2:04am

Sat Aug 1, 1:04am

Sat Aug 1, 12:05am

Fri Jul 31, 11:05pm

Fri Jul 31, 10:04pm

Fri Jul 31, 9:04pm

Fri Jul 31, 8:05pm

Fri Jul 31, 7:05pm

Fri Jul 31, 6:04pm

Fri Jul 31, 5:04pm

Fri Jul 31, 4:05pm

Fri Jul 31, 3:04pm

Fri Jul 31, 2:05pm

Fri Jul 31, 1:04pm

Fri Jul 31, 12:04pm

Fri Jul 31, 11:04am

Meta data:

ID: ca6df005-f42f-4a48-877f-8051b9071214
Link: https://api.weather.gov/products/ca6df005-f42f-4a48-877f-8051b9071214